Location: Northcutt
(34.7304°N, 84.4305°W)
Time: 03:28:27
(UTC+00:00)

A-11 Canister half - Pass Details

Date: 08 October 2022
Orbit: 1524 x 1685 km, 47.3° (Epoch: 01 December)

Event Time Altitude Azimuth Distance (km) Brightness Sun altitude
Rises 23:54:03 0° 300° (WNW) 4,682 12.7 -9.2°
Reaches altitude 10° 23:57:16 10° 306° (NW) 3,708 11.9 -9.8°
Maximum altitude 00:06:13 47° 19° (NNE) 1,985 9.5 -11.7°
Enters shadow 00:13:45 16° 86° (E) 3,332 10.1 -13.2°
Drops below altitude 10° 00:15:24 10° 91° (E) 3,806 - -13.6°
Sets 00:18:45 0° 97° (E) 4,814 - -14.2°
